Tracking 18785 objects as of 22-July-2017
HD Live streaming from Space Station
objects crossing your sky now
MAYAK may become the brightest orbital object in the night sky!
Where is MAYAK now?
How to spot MAYAK

COSMOS 312

Track COSMOS 312 now!
10-day predictions
COSMOS 312 is classified as:


NORAD ID: 4254
Int'l Code: 1969-103A
Perigee: 1,147.6 km
Apogee: 1,182.0 km
Inclination: 74.0 °
Period: 108.5 minutes
Semi major axis: 7535 km
RCS: 3.057 m2 (large)
Launch date: November 24, 1969
Source: Commonwealth of Independent States (former USSR) (CIS)
Launch site: PLESETSK MISSILE AND SPACE COMPLEX (PKMTR)
Your satellite tracking list
Your tracking list is empty





NASA's NSSDC Master Catalog

Two Line Element Set (TLE):
1  4254U 69103A   17202.90787802 -.00000019 +00000-0 +16492-5 0  9995
2  4254 074.0203 007.9643 0022782 174.4693 339.1849 13.27113712308171
Source of the keplerian elements: AFSPC